Terminal Aerodrome Forecast
Issued by NWS North Platte, NE

Home | Current Version | Previous Version | Text Only | Print | Product List | Glossary On
Versions: 1 2 3 4 5 6 7 8 9 10 11 12 13
000
FTUS43 KLBF 230500
TAFVTN
TAF
KVTN 230520Z 2306/2406 07007KT P6SM -SHRA SCT025 BKN050 OVC100
      TEMPO 2307/2311 VRB35KT 1SM +TSRA OVC025CB
     FM231200 15010KT P6SM OVC050
     FM231600 21012G18KT P6SM SCT100
     FM240100 20008KT P6SM SCT100=

USA.gov is the U.S. government's official web portal to all federal, state and local government web resources and services.